Weather History for Pine Ridge, SD

Change the Weather History Date:

Saturday, March 22, 2014

  Actual Average Record
Temperature  
Mean Temperature 16 °F 39 °F  
Max Temperature 24 °F 53 °F 79 °F (2009)
Min Temperature 8 °F 25 °F -2 °F (2002)
Degree Days  
Heating Degree Days 49 26  
Month to date heating degree days 673 663  
Since 1 July heating degree days 6155 6013  
Cooling Degree Days 0 0  
Month to date cooling degree days 0 0  
Year to date cooling degree days 0 0  
Moisture  
Dew Point 13 °F    
Average Humidity 80    
Maximum Humidity 92    
Minimum Humidity 68    
Precipitation  
Precipitation 0.02 in 0.04 in 0.20 in (2001)
Month to date precipitation 0.25 0.53  
Year to date precipitation 0.52 1.32  
Sea Level Pressure  
Sea Level Pressure 30.42 in    
Wind  
Wind Speed 6 mph (ENE)    
Max Wind Speed 14 mph    
Max Gust Speed 19 mph    
Visibility 5 miles    
Events Snow    
T = Trace of Precipitation, MM = Missing Value Source: NWS Daily Summary

Daily Weather History Graph

Daily Weather History Graph

Search for Another Location

Airport:

Trip Planner

Search our weather history database for the weather conditions in past years. The results will help you decide how hot, cold, wet, or windy it might be!

Date:

Astronomy

Mar. 22, 2014 Rise Set
Actual Time 6:49 AM MDT 7:04 PM MDT
Civil Twilight 6:21 AM MDT 7:33 PM MDT
Nautical Twilight 5:48 AM MDT 8:06 PM MDT
Astronomical Twilight 5:14 AM MDT 8:40 PM MDT
Moon 12:33 AM MDT (3/22) 10:27 AM MDT (3/22)
Length of Visible Light 13h 11m
Length of Day
12h 15m
Waning Gibbous, 65% of the Moon is Illuminated
Mar 22
Waning Gibbous
Mar 23
Last Quarter
Mar 30
New
Apr 7
First Quarter
Apr 15
Full

Hourly Weather History & Observations

Time (MDT) Temp. Windchill Dew Point Humidity Pressure Visibility Wind Dir Wind Speed Gust Speed Precip Events Conditions
12:18 AM 25.0 °F 14.2 °F 19.9 °F 81% 30.28 in 10.0 mi NE 11.5 mph - N/A   Overcast
12:39 AM 24.1 °F 15.2 °F 19.0 °F 81% 30.28 in 10.0 mi ENE 8.1 mph - N/A   Overcast
12:52 AM 24.1 °F 15.2 °F 19.0 °F 81% 30.37 in 10.0 mi ENE 8.1 mph - N/A   Overcast
1:52 AM 24.1 °F 14.4 °F 18.0 °F 77% 30.37 in 10.0 mi ENE 9.2 mph - N/A   Overcast
2:52 AM 23.0 °F 15.8 °F 18.0 °F 81% 30.38 in 9.0 mi NNE 5.8 mph - 0.00 in Snow Light Snow
3:20 AM 23.0 °F 12.4 °F 18.0 °F 81% 30.28 in 4.0 mi ENE 10.4 mph - 0.00 in Snow Light Snow
3:41 AM 21.9 °F 11.7 °F 17.1 °F 82% 30.28 in 5.0 mi ENE 9.2 mph - 0.00 in Snow Light Snow
3:52 AM 21.9 °F 11.7 °F 17.1 °F 82% 30.39 in 5.0 mi ENE 9.2 mph - 0.00 in Snow Light Snow
4:03 AM 21.9 °F 12.5 °F 17.1 °F 82% 30.28 in 5.0 mi ENE 8.1 mph - 0.00 in Snow Light Snow
4:52 AM 21.0 °F 12.4 °F 17.1 °F 85% 30.39 in 5.0 mi NE 6.9 mph - 0.00 in Snow Light Snow
5:52 AM 21.0 °F 9.9 °F 17.1 °F 85% 30.39 in 3.0 mi NE 10.4 mph - 0.00 in Snow Light Snow
6:52 AM 18.0 °F 4.8 °F 12.9 °F 81% 30.43 in 4.0 mi ENE 12.7 mph - 0.00 in Snow Light Snow
7:05 AM 18.0 °F 4.2 °F 12.9 °F 81% 30.32 in 1.8 mi ENE 13.8 mph - 0.00 in Snow Light Snow
7:25 AM 17.1 °F 6.6 °F 12.9 °F 84% 30.33 in 1.0 mi ENE 8.1 mph - 0.00 in Snow Light Snow
7:52 AM 17.1 °F 5.0 °F 12.9 °F 84% 30.47 in 1.0 mi ENE 10.4 mph - 0.01 in Snow Light Snow
8:05 AM 17.1 °F 5.8 °F 12.9 °F 84% 30.34 in 0.8 mi ENE 9.2 mph - 0.00 in Snow Light Snow
8:52 AM 17.1 °F 4.3 °F 12.0 °F 81% 30.49 in 0.8 mi ENE 11.5 mph - 0.00 in Snow Light Snow
9:00 AM 16.0 °F 3.6 °F 12.0 °F 84% 30.36 in 1.0 mi ENE 10.4 mph - 0.00 in Snow Light Snow
9:42 AM 17.1 °F 5.0 °F 10.9 °F 77% 30.38 in 1.8 mi ENE 10.4 mph - 0.01 in Snow Light Snow
9:49 AM 15.8 °F 3.4 °F 10.4 °F 79% 30.38 in 2.5 mi ENE 10.4 mph - 0.01 in Snow Light Snow
9:52 AM 17.1 °F 5.8 °F 10.9 °F 77% 30.52 in 2.5 mi ENE 9.2 mph - 0.01 in Snow Light Snow
10:24 AM 17.1 °F 5.8 °F 10.9 °F 77% 30.38 in 1.5 mi East 9.2 mph - 0.00 in Snow Light Snow
10:52 AM 17.1 °F 6.6 °F 12.0 °F 81% 30.53 in 1.0 mi East 8.1 mph - 0.00 in Snow Light Snow
11:02 AM 17.1 °F 5.0 °F 12.0 °F 81% 30.39 in 0.8 mi ENE 10.4 mph - 0.00 in Snow Light Snow
11:17 AM 18.0 °F 6.9 °F 10.9 °F 74% 30.39 in 1.8 mi NE 9.2 mph - 0.00 in Snow Light Snow
11:24 AM 18.0 °F 6.1 °F 10.0 °F 71% 30.39 in 2.0 mi NE 10.4 mph - 0.00 in Snow Light Snow
11:34 AM 18.0 °F 6.9 °F 10.0 °F 71% 30.40 in 1.5 mi NE 9.2 mph - 0.00 in Snow Light Snow
11:52 AM 18.0 °F 8.7 °F 10.0 °F 71% 30.54 in 1.8 mi ENE 6.9 mph - 0.00 in Snow Light Snow
12:00 PM 18.0 °F 8.7 °F 10.9 °F 74% 30.40 in 2.0 mi ENE 6.9 mph - 0.00 in Snow Light Snow
12:32 PM 19.0 °F 9.0 °F 10.9 °F 71% 30.39 in 3.0 mi ENE 8.1 mph - 0.00 in Snow Light Snow
12:47 PM 19.4 °F 8.6 °F 12.2 °F 74% 30.39 in 1.8 mi East 9.2 mph - 0.00 in Snow Light Snow
12:52 PM 19.9 °F 9.3 °F 12.0 °F 71% 30.53 in 2.0 mi ENE 9.2 mph - 0.00 in Snow Light Snow
1:02 PM 19.9 °F 10.1 °F 12.0 °F 71% 30.39 in 6.0 mi ENE 8.1 mph - 0.00 in Snow Light Snow
1:52 PM 21.0 °F 12.4 °F 12.0 °F 68% 30.51 in 9.0 mi East 6.9 mph - 0.00 in   Overcast
2:30 PM 21.0 °F 12.4 °F 14.0 °F 74% 30.38 in 2.5 mi NE 6.9 mph - 0.00 in Snow Light Snow
2:41 PM 21.0 °F 13.4 °F 12.9 °F 71% 30.38 in 4.0 mi NE 5.8 mph - 0.00 in Snow Light Snow
2:52 PM 21.0 °F 13.4 °F 12.9 °F 71% 30.52 in 3.0 mi NNE 5.8 mph - 0.00 in Snow Light Snow
3:10 PM 21.0 °F 12.4 °F 12.9 °F 71% 30.38 in 2.5 mi NNE 6.9 mph - 0.00 in Snow Light Snow
3:19 PM 21.9 °F 15.7 °F 14.0 °F 72% 30.38 in 4.0 mi NE 4.6 mph - 0.00 in Snow Light Snow
3:41 PM 21.0 °F 13.4 °F 12.9 °F 71% 30.38 in 2.5 mi NE 5.8 mph - 0.00 in Snow Light Snow
3:49 PM 21.2 °F 13.6 °F 12.2 °F 68% 30.38 in 4.0 mi ENE 5.8 mph - 0.00 in Snow Light Snow
3:50 PM 21.2 °F 13.6 °F 12.2 °F 68% 30.38 in 4.0 mi ENE 5.8 mph - 0.00 in Snow Light Snow
3:52 PM 21.0 °F 13.4 °F 12.9 °F 71% 30.52 in 4.0 mi NE 5.8 mph - 0.00 in Snow Light Snow
4:52 PM 21.9 °F 14.5 °F 12.9 °F 68% 30.52 in 9.0 mi NNE 5.8 mph - 0.00 in   Overcast
5:52 PM 19.9 °F 13.4 °F 12.9 °F 74% 30.54 in 2.0 mi NNE 4.6 mph - 0.00 in Snow Light Snow
6:01 PM 19.9 °F - 12.9 °F 74% 30.40 in 3.0 mi Calm Calm - 0.00 in Snow Light Snow
6:42 PM 19.9 °F - 14.0 °F 78% 30.41 in 3.0 mi Calm Calm - 0.00 in Snow Light Snow
6:49 PM 19.4 °F - 14.0 °F 80% 30.41 in 2.0 mi Calm Calm - 0.00 in Snow Light Snow
6:52 PM 19.9 °F - 14.0 °F 78% 30.56 in 2.0 mi Calm Calm - 0.00 in Snow Light Snow
7:07 PM 19.9 °F - 14.0 °F 78% 30.41 in 4.0 mi Calm Calm - 0.00 in Snow Light Snow
7:14 PM 19.9 °F - 15.1 °F 81% 30.41 in 5.0 mi Calm Calm - 0.00 in Snow Light Snow
7:52 PM 19.0 °F - 14.0 °F 81% 30.57 in 10.0 mi Calm Calm - 0.00 in   Overcast
8:11 PM 19.0 °F - 14.0 °F 81% 30.42 in 10.0 mi Calm Calm - N/A   Overcast
8:52 PM 18.0 °F - 12.9 °F 81% 30.58 in 10.0 mi Calm Calm - N/A   Mostly Cloudy
9:41 PM 12.0 °F 5.9 °F 8.1 °F 84% 30.42 in 10.0 mi South 3.5 mph - N/A   Mostly Cloudy
9:52 PM 12.9 °F 6.9 °F 8.1 °F 81% 30.59 in 10.0 mi South 3.5 mph - N/A   Scattered Clouds
10:52 PM 10.9 °F - 8.1 °F 88% 30.60 in 10.0 mi Calm Calm - N/A   Partly Cloudy
11:09 PM 10.0 °F - 6.1 °F 84% 30.42 in 10.0 mi Calm Calm - N/A   Mostly Cloudy
11:20 PM 10.0 °F - 7.0 °F 87% 30.41 in 10.0 mi Calm Calm - N/A   Overcast
11:45 PM 10.9 °F - 8.1 °F 88% 30.41 in 10.0 mi Calm Calm - N/A   Overcast
11:52 PM 12.0 °F - 9.0 °F 88% 30.58 in 10.0 mi Calm Calm - N/A   Overcast